QPF
0.00 0.00 0.00 0.00 0.00 0.00 0.00 0.00 0.00 0.00 0.00 0.00 0.00 0.00 0.00 0.00 0.00 0.00 0.00 0.00 0.00 0.00 0.00 0.00 0.00 0.00 0.00 0.00 0.00 0.00 0.00 0.00 0.00 0.00 0.00 0.00 0.00 0.00 0.00 0.00 0.00 0.00 0.00 0.00 0.00
0.00 0.00 0.00 0.00 0.00 0.00 0.00 0.00 0.00 0.00 0.00 0.00 0.00 0.00 0.00 0.00 0.00 0.00 0.00 0.00 0.00 0.00 0.00 0.00 0.00 0.00 0.00 0.00 0.00 0.00 0.00 0.00 0.00 0.00 0.00 0.00 0.00 0.00 0.00 0.00 0.00 0.00 0.00 0.00 0.00
0.00 0.00 0.00 0.00 0.00 0.00 0.00 0.00 0.00 0.00 0.00 0.00 0.00 0.00 0.00 0.00 0.00 0.00 0.00 0.00 0.00 0.00 0.00 0.00 0.00 0.00 0.00 0.00 0.00 0.00 0.00 0.00 0.00 0.00 0.00 0.00 0.00 0.00 0.00 0.00 0.00 0.00 0.00 0.00 0.00
0.00 0.00 0.00 0.00 0.00 0.00 0.00 0.00 0.00 0.00 0.00 0.00 0.00 0.00 0.00 0.00 0.00 0.00 0.00 0.00 0.00 0.00 0.00 0.00 0.00 0.00 0.00 0.00 0.00 0.00 0.00 0.00 0.00 0.00 0.00 0.00 0.00 0.00 0.00 0.00 0.00 0.00 0.00 0.00 0.00
0.00 0.00 0.00 0.00 0.00 0.00 0.00 0.00 0.00 0.00 0.00 0.00 0.00 0.00 0.00 0.00 0.00 0.00 0.00 0.00 0.00 0.00 0.00 0.00 0.00 0.00 0.00 0.00 0.00 0.00 0.00 0.00 0.00 0.00 0.00 0.00 0.00 0.00 0.00 0.00 0.00 0.00 0.00 0.00 0.00
0.00 0.00 0.00 0.00 0.00 0.00 0.00 0.00 0.00 0.00 0.00 0.00 0.00 0.00 0.00 0.00 0.00 0.00 0.00 0.00 0.00 0.00 0.00 0.00 0.00 0.00 0.00 0.00 0.00 0.00 0.00 0.00 0.00 0.00 0.00 0.00 0.00 0.00 0.00 0.00 0.00 0.00 0.00 0.00 0.00
0.00 0.00 0.00 0.00 0.00 0.00 0.00 0.00 0.00 0.00 0.00 0.00 0.00 0.00 0.00 0.00 0.00 0.00 0.00 0.00 0.00 0.00 0.00 0.00 0.00 0.00 0.00 0.00 0.00 0.00 0.00 0.00 0.00 0.00 0.00 0.00 0.00 0.00 0.00 0.00 0.00 0.00 0.00 0.00 0.00
0.00 0.00 0.00 0.00 0.00 0.00 0.00 0.00 0.00 0.00 0.00 0.00 0.00 0.00 0.00 0.00 0.00 0.00 0.00 0.00 0.00 0.00 0.00 0.00 0.00 0.00 0.00 0.00 0.00 0.00 0.00 0.00 0.00 0.00 0.00 0.00 0.00 0.00 0.00 0.00 0.00 0.00 0.00 0.00 0.00
0.00 0.00 0.00 0.00 0.00 0.00 0.00 0.00 0.00 0.00 0.00 0.00 0.00 0.00 0.00 0.00 0.00 0.00 0.00 0.00 0.00 0.00 0.00 0.00 0.00 0.00 0.00 0.00 0.00 0.00 0.00 0.00 0.00 0.00 0.00 0.00 0.00 0.00 0.00 0.00 0.00 0.00 0.00 0.00 0.00
0.00 0.00 0.00 0.00 0.00 0.00 0.00 0.00 0.00 0.00 0.00 0.00 0.00 0.00 0.00 0.00 0.00 0.00 0.00 0.00 0.00 0.00 0.00 0.00 0.00 0.00 0.00 0.00 0.00 0.00 0.00 0.00 0.00 0.00 0.00 0.00 0.00 0.00 0.00 0.00 0.00 0.00 0.00 0.00 0.00
0.00 0.00 0.00 0.00 0.00 0.00 0.00 0.00 0.00 0.00 0.00 0.00 0.00 0.00 0.00 0.00 0.00 0.00 0.00 0.00 0.00 0.00 0.00 0.00 0.00 0.00 0.00 0.00 0.00 0.00 0.00 0.00 0.00 0.00 0.00 0.00 0.00 0.00 0.00 0.00 0.00 0.00 0.00 0.00 0.00
0.00 0.00 0.00 0.00 0.00 0.00 0.00 0.00 0.00 0.00 0.00 0.00 0.00 0.00 0.00 0.00 0.00 0.00 0.00 0.00 0.00 0.00 0.00 0.00 0.00 0.00 0.00 0.00 0.00 0.00 0.00 0.00 0.00 0.00 0.00 0.00 0.00 0.00 0.00 0.00 0.00 0.00 0.00 0.00 0.00
0.00 0.00 0.00 0.00 0.00 0.00 0.00 0.00 0.00 0.00 0.00 0.00 0.00 0.00 0.00 0.00 0.00 0.00 0.00 0.00 0.00 0.00 0.00 0.00 0.00 0.00 0.00 0.00 0.00 0.00 0.00 0.00 0.00 0.00 0.00 0.00 0.00 0.00 0.00 0.00 0.00 0.00 0.00 0.00 0.00
0.00 0.00 0.00 0.00 0.00 0.00 0.00 0.00 0.00 0.00 0.00 0.00 0.00 0.00 0.00 0.00 0.00 0.00 0.00 0.00 0.00 0.00 0.00 0.00 0.00 0.00 0.00 0.00 0.00 0.00 0.00 0.00 0.00 0.00 0.00 0.00 0.00 0.00 0.00 0.00 0.00 0.00 0.00 0.00 0.00
0.00 0.00 0.00 0.00 0.00 0.00 0.00 0.00 0.00 0.00 0.00 0.00 0.00 0.00 0.00 0.00 0.00 0.00 0.00 0.00 0.00 0.00 0.00 0.00 0.00 0.00 0.00 0.00 0.00 0.00 0.00 0.00 0.00 0.00 0.00 0.00 0.00 0.00 0.00 0.00 0.00 0.00 0.00 0.00 0.00
0.00 0.00 0.00 0.00 0.00 0.00 0.00 0.00 0.00 0.00 0.00 0.00 0.00 0.00 0.00 0.00 0.00 0.00 0.00 0.00 0.00 0.00 0.00 0.00 0.00 0.00 0.00 0.00 0.00 0.00 0.00 0.00 0.00 0.00 0.00 0.00 0.00 0.00 0.00 0.00 0.00 0.00 0.00 0.00 0.00
0.00 0.00 0.00 0.00 0.00 0.00 0.00 0.00 0.00 0.00 0.00 0.00 0.00 0.00 0.00 0.00 0.00 0.00 0.00 0.00 0.00 0.00 0.00 0.00 0.00 0.00 0.00 0.00 0.00 0.00 0.00 0.00 0.00 0.00 0.00 0.00 0.00 0.00 0.00 0.00 0.00 0.00 0.00 0.00 0.00
0.00 0.00 0.00 0.00 0.00 0.00 0.00 0.00 0.00 0.00 0.00 0.00 0.00 0.00 0.00 0.00 0.00 0.00 0.00 0.00 0.00 0.00 0.00 0.00 0.00 0.00 0.00 0.00 0.00 0.00 0.00 0.00 0.00 0.00 0.00 0.00 0.00 0.00 0.00 0.00 0.00 0.00 0.00 0.00 0.00
0.00 0.00 0.00 0.00 0.00 0.00 0.00 0.00 0.00 0.00 0.00 0.00 0.00 0.00 0.00 0.00 0.00 0.00 0.00 0.00 0.00 0.00 0.00 0.00 0.00 0.00 0.00 0.00 0.00 0.00 0.00 0.00 0.00 0.00 0.00 0.00 0.00 0.00 0.00 0.00 0.00 0.00 0.00 0.00 0.00
0.00 0.00 0.00 0.00 0.00 0.00 0.00 0.00 0.00 0.00 0.00 0.00 0.00 0.00 0.00 0.00 0.00 0.00 0.00 0.00 0.00 0.00 0.00 0.00 0.00 0.00 0.00 0.00 0.00 0.00 0.00 0.00 0.00 0.00 0.00 0.00 0.00 0.00 0.00 0.00 0.00 0.00 0.00 0.00 0.00
0.00 0.00 0.00 0.00 0.00 0.00 0.00 0.00 0.00 0.00 0.00 0.00 0.00 0.00 0.00 0.00 0.00 0.00 0.00 0.00 0.00 0.00 0.00 0.00 0.00 0.00 0.00 0.00 0.00 0.00 0.00 0.00 0.00 0.00 0.00 0.00 0.00 0.00 0.00 0.00 0.00 0.00 0.00 0.00 0.00
0.00 0.00 0.00 0.00 0.00 0.00 0.00 0.00 0.00 0.00 0.00 0.00 0.00 0.00 0.00 0.00 0.00 0.00 0.00 0.00 0.00 0.00 0.00 0.00 0.00 0.00 0.00 0.00 0.00 0.00 0.00 0.00 0.00 0.00 0.00 0.00 0.00 0.00 0.00 0.00 0.00 0.00 0.00 0.00 0.00
0.00 0.00 0.00 0.00 0.00 0.00 0.00 0.00 0.00 0.00 0.00 0.00 0.00 0.00 0.00 0.00 0.00 0.00 0.00 0.00 0.00 0.00 0.00 0.00 0.00 0.00 0.00 0.00 0.00 0.00 0.00 0.00 0.00 0.00 0.00 0.00 0.00 0.00 0.00 0.00 0.00 0.00 0.00 0.00 0.00
0.00 0.00 0.00 0.00 0.00 0.00 0.00 0.00 0.00 0.00 0.00 0.00 0.00 0.00 0.00 0.00 0.00 0.00 0.00 0.00 0.00 0.00 0.00 0.00 0.00 0.00 0.00 0.00 0.00 0.00 0.00 0.00 0.00 0.00 0.00 0.00 0.00 0.00 0.00 0.00 0.00 0.00 0.00 0.00 0.00
0.00 0.00 0.00 0.00 0.00 0.00 0.00 0.00 0.00 0.00 0.00 0.00 0.00 0.00 0.00 0.00 0.00 0.00 0.00 0.00 0.00 0.00 0.00 0.00 0.00 0.00 0.00 0.00 0.00 0.00 0.00 0.00 0.00 0.00 0.00 0.00 0.00 0.00 0.00 0.00 0.00 0.00 0.00 0.00 0.00
0.00 0.00 0.00 0.00 0.00 0.00 0.00 0.00 0.00 0.00 0.00 0.00 0.00 0.00 0.00 0.00 0.00 0.00 0.00 0.00 0.00 0.00 0.00 0.00 0.00 0.00 0.00 0.00 0.00 0.00 0.00 0.00 0.00 0.00 0.00 0.00 0.00 0.00 0.00 0.00 0.00 0.00 0.00 0.00 0.00
0.00 0.00 0.00 0.00 0.00 0.00 0.00 0.00 0.00 0.00 0.00 0.00 0.00 0.00 0.00 0.00 0.00 0.00 0.00 0.00 0.00 0.00 0.00 0.00 0.00 0.00 0.00 0.00 0.00 0.00 0.00 0.00 0.00 0.00 0.00 0.00 0.00 0.00 0.00 0.00 0.00 0.00 0.00 0.00 0.00
MSLP
1014.82 1014.37 1013.92 1013.44 1013.01 1012.49 1012.10 1011.75 1011.45 1011.22 1011.02 1010.75 1010.73 1010.73 1010.67 1010.49 1010.02 1009.19 1006.90 1005.05 1004.97 1005.23 1005.65 1004.42 1003.77 1002.80 1001.99 1000.65 999.92 999.61 999.14 998.00 998.19 997.80 997.90 997.48 997.23 997.42 997.51 997.44 998.30 999.59 1000.40 1002.54 1004.31
1014.90 1014.38 1013.88 1013.35 1012.90 1012.40 1011.90 1011.53 1011.19 1010.91 1010.79 1010.66 1010.61 1010.68 1010.65 1010.54 1009.27 1007.04 1004.89 1004.85 1005.20 1005.36 1005.21 1003.86 1002.79 1002.06 1001.14 999.88 999.32 998.89 998.57 997.79 998.17 998.21 998.21 997.76 997.70 997.50 997.49 997.69 998.28 999.72 1001.63 1003.09 1004.38
1014.94 1014.41 1013.85 1013.26 1012.70 1012.24 1011.69 1011.13 1010.78 1010.57 1010.48 1010.48 1010.47 1010.57 1010.58 1010.44 1008.35 1004.45 1004.68 1004.85 1005.10 1005.35 1004.68 1003.20 1002.38 1001.77 1000.78 999.49 999.11 998.46 998.06 998.24 998.03 998.27 998.39 998.20 998.07 997.75 997.59 997.61 998.13 999.36 1001.47 1003.17 1004.39
1015.02 1014.46 1013.83 1013.22 1012.54 1011.97 1011.39 1010.85 1010.41 1010.11 1010.16 1010.29 1010.35 1010.45 1010.53 1009.82 1006.01 1004.67 1004.90 1005.12 1005.29 1005.17 1004.74 1003.21 1002.45 1001.65 1000.57 999.52 998.87 998.96 998.54 998.35 998.30 998.41 998.58 998.41 998.20 998.04 998.10 998.07 998.33 999.02 1000.77 1002.62 1003.87
1015.10 1014.54 1013.83 1013.12 1012.41 1011.85 1011.21 1010.62 1010.17 1009.84 1009.85 1010.10 1010.28 1010.41 1010.29 1007.85 1004.42 1004.61 1004.94 1005.16 1005.17 1005.29 1004.15 1002.98 1002.25 1001.44 1000.64 999.70 999.18 998.97 998.48 998.50 998.43 998.40 998.35 998.33 998.30 998.34 998.27 998.18 998.34 998.98 1000.58 1002.18 1003.31
1015.11 1014.47 1013.80 1013.10 1012.41 1011.76 1011.13 1010.55 1009.97 1009.74 1009.77 1010.00 1010.22 1010.41 1009.03 1005.17 1003.54 1004.24 1004.33 1004.81 1004.31 1004.35 1003.40 1002.76 1001.98 1001.44 1000.95 1000.45 999.70 999.11 998.88 998.74 998.28 998.27 998.28 998.16 997.92 998.12 998.17 998.47 998.56 998.83 999.74 1001.29 1002.44
1014.99 1014.32 1013.62 1012.95 1012.27 1011.63 1011.04 1010.53 1010.05 1009.84 1009.85 1010.01 1010.20 1009.66 1006.71 1003.47 1002.94 1003.62 1004.11 1004.04 1003.57 1003.37 1002.52 1002.28 1002.14 1001.83 1000.88 1000.13 999.32 999.19 998.84 997.83 997.92 998.18 997.94 998.16 997.84 998.06 998.48 998.43 998.39 998.53 999.18 1000.23 1001.50
1014.97 1014.31 1013.58 1012.83 1012.13 1011.50 1010.97 1010.44 1010.00 1009.85 1009.91 1010.01 1010.20 1009.03 1004.49 1002.95 1002.77 1003.33 1003.44 1003.13 1002.93 1002.70 1002.37 1002.19 1002.08 1002.06 1001.43 1000.46 999.60 998.71 997.68 996.87 997.48 997.88 997.80 997.85 997.50 998.03 998.41 998.14 998.35 998.58 999.00 999.89 1000.89
1014.93 1014.24 1013.44 1012.63 1012.04 1011.36 1010.75 1010.22 1009.80 1009.65 1009.83 1010.00 1009.62 1007.52 1003.31 1003.36 1002.82 1002.62 1002.46 1002.30 1002.57 1002.65 1002.48 1002.57 1002.46 1001.78 1000.84 999.97 998.88 997.52 996.40 996.54 997.08 997.61 998.02 997.73 997.44 997.87 998.29 998.36 998.64 998.95 999.02 999.72 1000.36
1014.97 1014.16 1013.30 1012.43 1011.80 1011.22 1010.28 1009.98 1009.47 1009.46 1009.46 1008.86 1007.30 1005.69 1002.99 1002.24 1002.17 1002.23 1002.28 1002.14 1002.14 1002.09 1002.23 1002.33 1001.75 1000.94 1000.07 999.03 998.03 997.38 996.97 996.90 997.27 997.57 997.91 997.42 997.62 998.19 998.43 998.26 999.01 999.38 999.67 1000.06 1000.62
1015.03 1014.08 1013.16 1012.18 1011.28 1011.15 1009.93 1008.53 1008.79 1007.90 1006.68 1004.13 1003.07 1001.88 1001.49 1001.13 1001.63 1001.96 1002.12 1002.27 1001.95 1001.79 1001.29 1001.07 1000.57 999.24 998.16 998.50 998.66 998.58 998.09 997.66 997.32 997.95 998.28 997.70 998.07 998.41 998.71 998.73 999.63 1000.05 1000.17 1000.43 1000.78
1014.91 1013.99 1012.95 1011.86 1010.81 1010.45 1010.52 1007.27 1005.83 1005.20 1003.99 1002.66 1001.74 1001.17 1000.70 1001.30 1001.36 1001.42 1001.85 1001.98 1001.66 1001.00 1000.45 1000.07 999.27 998.59 998.88 999.19 999.14 998.86 998.42 997.70 997.50 997.95 998.39 997.66 997.68 998.21 998.82 999.29 999.83 1000.56 1000.74 1001.11 1001.84
1014.86 1013.91 1012.83 1011.48 1010.25 1009.02 1007.13 1005.91 1005.28 1004.57 1003.15 1000.86 1000.79 1000.61 1000.67 1000.88 1000.31 1000.63 1001.53 1001.29 1000.71 1000.25 999.63 999.32 998.66 999.06 999.33 999.16 998.91 998.56 998.37 997.87 997.97 997.96 997.87 997.85 997.54 998.01 998.89 999.45 1000.11 1001.17 1001.97 1002.31 1002.70
1014.86 1013.94 1013.07 1011.66 1009.92 1007.28 1005.38 1005.29 1004.74 1004.54 1002.63 999.95 999.81 999.31 1000.07 1000.29 999.63 999.69 1000.76 1000.49 999.97 999.59 999.09 998.96 998.82 999.28 999.29 998.76 998.83 998.20 998.50 998.81 998.76 998.49 997.55 997.59 997.75 997.46 998.43 999.04 999.77 1000.79 1001.84 1002.96 1003.97
1014.72 1013.88 1012.99 1013.30 1010.39 1006.49 1005.51 1005.05 1004.96 1004.23 1001.09 999.25 998.97 998.56 999.35 999.64 998.71 999.56 1000.23 1000.13 999.89 999.21 999.58 998.66 998.84 999.06 999.01 998.80 999.45 999.14 999.47 999.28 999.04 998.73 998.26 997.52 997.21 997.58 998.14 998.66 999.36 1000.33 1001.56 1002.77 1003.61
1014.38 1013.76 1013.30 1010.90 1009.83 1006.47 1005.24 1004.99 1004.55 1003.16 999.23 998.07 998.41 998.76 998.85 999.17 998.83 999.17 999.89 1000.14 999.77 999.60 999.24 999.07 998.98 999.45 999.30 999.37 999.82 999.85 999.79 999.38 998.99 998.36 997.82 997.28 997.07 997.76 998.28 998.78 999.66 1000.62 1001.71 1002.78 1003.57
1013.81 1012.87 1013.32 1010.98 1006.78 1005.57 1005.36 1004.66 1003.22 1000.60 997.87 997.42 997.70 998.13 998.33 998.54 998.51 999.11 999.61 999.85 999.85 999.54 998.86 998.42 998.48 998.74 999.64 999.58 999.48 999.75 999.54 998.82 998.10 998.07 997.89 998.04 997.99 998.18 998.78 999.53 1000.14 1000.86 1001.79 1002.72 1003.30
1013.32 1011.66 1009.46 1008.51 1006.47 1005.99 1005.20 1004.17 1001.78 998.70 997.17 996.69 997.06 997.46 997.77 997.68 997.96 998.44 998.87 999.03 999.26 999.12 998.67 997.99 997.48 998.06 998.94 999.65 999.69 999.55 999.88 999.99 999.29 998.62 998.62 998.53 998.20 998.47 999.09 999.86 1000.69 1001.30 1001.93 1002.68 1003.17
1012.78 1009.19 1007.62 1006.27 1006.30 1005.66 1004.83 1002.71 1000.14 998.20 997.00 996.89 997.32 996.89 997.01 996.89 997.45 997.82 998.24 998.19 998.03 998.24 999.11 998.58 998.12 998.56 999.27 999.69 1000.25 999.98 1000.31 1000.23 1000.29 1000.07 999.62 998.73 998.48 999.31 999.66 1000.20 1000.83 1001.34 1002.05 1002.83 1003.75
1013.14 1009.09 1005.78 1004.35 1004.80 1004.97 1004.03 1001.73 999.50 998.60 998.36 997.66 997.30 997.32 996.86 996.76 997.38 997.84 997.80 997.88 997.83 998.76 999.52 999.53 999.30 998.86 999.10 1000.26 1000.46 1000.62 1000.86 1000.91 1000.64 1000.32 999.86 998.82 999.06 999.52 1000.07 1000.36 1000.89 1001.80 1002.43 1003.37 1004.15
1012.44 1007.41 1003.31 1003.89 1004.41 1004.17 1002.61 1000.73 999.52 998.70 999.22 998.99 998.09 997.45 997.05 996.67 996.75 997.32 997.60 997.60 998.17 999.06 1000.06 1000.08 999.91 999.56 999.67 999.91 999.98 1000.23 1000.65 1000.84 1000.72 1000.91 1000.69 1000.27 999.69 1000.03 1000.54 1000.91 1001.50 1002.16 1002.80 1003.59 1004.46
1011.01 1006.29 1003.33 1003.67 1003.87 1002.97 1001.63 1000.58 999.68 999.11 999.68 999.60 999.04 998.51 997.61 997.54 997.28 997.46 997.74 997.60 998.37 999.47 1000.17 1000.70 1000.38 1000.08 999.92 999.42 999.73 1000.20 1000.58 1001.16 1001.57 1001.74 1001.11 1000.95 1000.18 1000.24 1000.76 1001.31 1001.84 1002.23 1003.02 1003.73 1004.44
1011.45 1006.03 1003.06 1003.40 1002.75 1001.74 1000.59 999.88 1000.06 999.86 999.81 999.59 999.32 999.22 998.70 998.41 998.35 998.40 998.53 999.48 1000.12 1000.67 1001.66 1001.84 1001.43 1001.14 1000.64 1000.16 999.75 1000.12 1001.04 1001.51 1001.78 1002.02 1001.92 1001.83 1001.09 1000.44 1000.82 1001.30 1001.98 1002.54 1003.27 1004.12 1004.92
1012.16 1006.29 1003.57 1002.98 1002.68 1001.69 1000.54 999.66 1000.03 1000.47 1000.18 999.84 999.75 999.46 999.52 999.43 999.35 999.45 999.31 1000.05 1001.03 1001.71 1002.91 1003.11 1002.84 1002.73 1002.01 1000.96 1001.24 1000.90 1001.03 1001.34 1001.79 1001.94 1001.81 1001.42 1000.83 1000.82 1001.18 1001.84 1002.60 1003.34 1004.06 1004.71 1005.22
1011.90 1006.61 1003.97 1002.48 1002.15 1001.67 1000.98 1000.18 1000.03 1000.24 1001.08 1000.76 1000.63 1000.30 1000.34 1000.05 1000.00 999.75 1000.18 1000.18 1001.38 1002.60 1003.20 1003.69 1003.64 1003.49 1002.83 1002.27 1001.82 1001.49 1001.32 1001.38 1001.52 1001.73 1001.81 1001.62 1001.48 1001.51 1001.86 1002.53 1003.35 1004.02 1004.47 1004.84 1005.26
1011.49 1008.14 1006.17 1004.32 1003.25 1002.10 1001.12 1000.90 1000.42 1000.08 1000.46 1000.98 1001.15 1000.56 1000.68 1000.52 1000.44 1000.11 1000.25 1000.76 1000.78 1002.30 1003.11 1003.65 1003.68 1003.88 1003.68 1003.35 1002.73 1002.09 1001.77 1001.67 1001.63 1001.72 1001.71 1001.82 1001.70 1001.85 1002.34 1003.01 1003.77 1004.48 1004.86 1005.35 1005.79
1012.24 1010.23 1008.69 1005.79 1003.85 1002.92 1001.96 1001.46 1001.14 1000.95 1000.46 1001.07 1001.23 1001.28 1001.01 1001.73 1001.72 1001.21 1001.17 1001.63 1001.64 1002.21 1002.84 1003.57 1004.03 1004.29 1003.99 1003.71 1003.23 1002.46 1001.85 1001.34 1001.20 1001.33 1001.61 1001.66 1001.91 1002.22 1002.97 1003.85 1004.46 1004.93 1005.47 1005.79 1005.96
Thickness
5784 5789 5793 5797 5801 5806 5809 5812 5815 5818 5820 5823 5824 5824 5824 5825 5830 5838 5845 5867 5870 5870 5867 5872 5873 5875 5880 5876 5886 5888 5845 5850 5852 5854 5856 5882 5873 5887 5895 5885 5881 5874 5864 5850 5843
5783 5789 5794 5798 5802 5807 5812 5816 5819 5822 5823 5825 5826 5826 5826 5827 5837 5847 5875 5875 5872 5870 5864 5864 5862 5873 5866 5873 5879 5867 5843 5860 5874 5872 5862 5875 5873 5878 5877 5875 5871 5862 5860 5854 5844
5783 5789 5794 5799 5804 5809 5814 5820 5823 5826 5827 5828 5828 5828 5828 5829 5839 5866 5877 5876 5874 5871 5872 5879 5878 5871 5859 5878 5875 5876 5855 5872 5876 5877 5877 5870 5870 5884 5873 5866 5875 5857 5850 5847 5840
5782 5788 5794 5800 5806 5811 5817 5823 5827 5830 5830 5830 5830 5829 5829 5835 5836 5873 5876 5874 5873 5873 5868 5871 5867 5855 5854 5855 5879 5854 5874 5876 5877 5879 5871 5864 5877 5869 5872 5872 5887 5880 5868 5853 5841
5780 5786 5793 5800 5807 5812 5819 5824 5829 5833 5833 5831 5830 5830 5834 5840 5859 5878 5876 5874 5873 5867 5863 5863 5856 5858 5846 5863 5870 5860 5871 5877 5880 5879 5877 5878 5867 5865 5868 5885 5892 5886 5869 5854 5848
5779 5786 5792 5800 5806 5812 5819 5825 5831 5833 5833 5832 5831 5830 5840 5841 5887 5881 5882 5875 5875 5868 5868 5869 5863 5870 5857 5855 5857 5870 5870 5870 5878 5875 5877 5867 5870 5872 5874 5885 5881 5881 5869 5862 5855
5778 5786 5793 5800 5807 5813 5819 5824 5829 5832 5832 5832 5831 5837 5850 5861 5892 5886 5881 5876 5882 5877 5868 5878 5877 5862 5867 5856 5880 5872 5854 5872 5874 5874 5872 5876 5857 5856 5876 5882 5876 5878 5876 5867 5863
5777 5784 5792 5799 5807 5813 5818 5824 5828 5830 5831 5830 5830 5839 5855 5890 5893 5883 5884 5880 5887 5887 5882 5885 5882 5864 5858 5872 5867 5860 5869 5854 5872 5876 5879 5873 5842 5864 5879 5878 5871 5875 5876 5870 5865
5775 5783 5791 5799 5806 5813 5819 5824 5828 5830 5829 5829 5832 5843 5854 5887 5874 5887 5890 5874 5878 5879 5880 5879 5869 5855 5862 5847 5843 5869 5858 5864 5862 5878 5870 5868 5853 5868 5879 5873 5866 5868 5873 5869 5866
5773 5781 5791 5799 5806 5812 5821 5824 5828 5830 5831 5835 5847 5839 5866 5859 5878 5884 5891 5884 5869 5868 5859 5854 5852 5843 5851 5847 5824 5844 5851 5861 5848 5865 5866 5862 5856 5861 5871 5872 5860 5862 5864 5863 5860
5770 5779 5789 5799 5808 5810 5823 5835 5829 5829 5840 5854 5859 5863 5869 5886 5890 5875 5882 5870 5868 5857 5834 5851 5834 5834 5864 5859 5856 5851 5846 5844 5862 5868 5853 5854 5849 5852 5864 5864 5851 5852 5855 5856 5857
5768 5777 5788 5798 5809 5813 5814 5833 5840 5846 5831 5864 5870 5870 5883 5880 5854 5867 5882 5850 5846 5832 5850 5843 5831 5861 5863 5856 5847 5845 5838 5844 5862 5865 5853 5856 5852 5858 5859 5855 5853 5847 5848 5847 5848
5765 5774 5785 5798 5810 5824 5837 5839 5856 5857 5831 5858 5867 5862 5865 5871 5856 5857 5865 5857 5846 5838 5845 5833 5852 5861 5849 5845 5839 5843 5836 5845 5841 5856 5861 5851 5841 5846 5853 5856 5851 5844 5841 5840 5836
5761 5770 5779 5793 5810 5833 5838 5849 5858 5855 5811 5841 5850 5865 5868 5867 5851 5882 5875 5862 5852 5838 5849 5845 5860 5845 5840 5840 5846 5834 5854 5845 5838 5832 5820 5860 5812 5843 5847 5843 5843 5836 5834 5830 5824
5757 5766 5776 5775 5801 5824 5836 5850 5850 5841 5780 5848 5853 5893 5873 5852 5866 5859 5880 5862 5837 5845 5843 5840 5842 5838 5833 5839 5844 5830 5847 5841 5839 5829 5831 5841 5833 5836 5854 5839 5842 5838 5831 5828 5827
5754 5762 5768 5792 5798 5826 5840 5844 5837 5795 5789 5838 5857 5845 5846 5851 5856 5863 5856 5866 5865 5843 5849 5843 5863 5847 5842 5849 5844 5847 5836 5839 5840 5835 5811 5840 5842 5825 5831 5838 5837 5834 5827 5824 5821
5752 5763 5763 5780 5810 5830 5834 5823 5790 5788 5854 5835 5838 5847 5842 5836 5842 5842 5833 5828 5818 5806 5814 5839 5841 5853 5849 5829 5844 5837 5822 5801 5806 5804 5802 5843 5829 5828 5841 5844 5839 5829 5824 5821 5820
5749 5767 5786 5796 5814 5820 5818 5795 5770 5829 5842 5862 5852 5847 5829 5844 5841 5839 5831 5821 5839 5833 5822 5820 5819 5843 5848 5831 5821 5826 5818 5789 5766 5789 5805 5838 5811 5826 5845 5845 5841 5837 5830 5822 5817
5747 5780 5790 5805 5808 5814 5794 5774 5798 5828 5854 5841 5841 5832 5831 5849 5844 5836 5830 5830 5846 5847 5809 5812 5822 5848 5841 5841 5831 5814 5798 5828 5798 5809 5795 5821 5832 5833 5838 5829 5827 5823 5820 5812 5806
5734 5764 5788 5816 5814 5801 5780 5775 5813 5833 5835 5838 5815 5831 5820 5837 5827 5826 5827 5844 5843 5842 5842 5822 5796 5837 5835 5831 5830 5816 5823 5786 5798 5766 5766 5811 5808 5793 5806 5812 5814 5806 5804 5799 5798
5731 5760 5804 5811 5805 5781 5768 5793 5813 5833 5828 5814 5816 5821 5832 5836 5841 5828 5828 5845 5843 5832 5833 5824 5811 5813 5823 5808 5802 5805 5796 5800 5805 5797 5767 5766 5794 5820 5807 5809 5802 5801 5800 5792 5788
5731 5744 5798 5802 5763 5776 5776 5798 5803 5814 5821 5812 5819 5819 5823 5828 5828 5825 5824 5839 5844 5832 5808 5817 5809 5789 5802 5836 5832 5819 5802 5797 5767 5762 5789 5779 5783 5823 5812 5808 5804 5798 5794 5790 5786
5713 5750 5791 5787 5749 5767 5792 5798 5798 5800 5801 5804 5803 5814 5823 5813 5800 5814 5823 5823 5822 5815 5795 5804 5789 5768 5781 5808 5823 5799 5795 5795 5791 5784 5762 5748 5765 5825 5812 5804 5796 5788 5787 5780 5773
5699 5729 5757 5770 5771 5766 5773 5783 5779 5796 5794 5803 5801 5810 5802 5796 5808 5795 5804 5807 5809 5803 5787 5791 5777 5762 5754 5778 5789 5779 5787 5790 5781 5758 5761 5767 5779 5794 5793 5784 5782 5776 5773 5767 5762
5692 5721 5746 5744 5754 5762 5769 5775 5771 5768 5780 5788 5781 5787 5784 5775 5784 5786 5793 5799 5792 5779 5785 5776 5750 5762 5773 5782 5785 5780 5779 5780 5771 5772 5754 5767 5764 5777 5777 5771 5769 5769 5764 5758 5754
5676 5698 5719 5729 5745 5751 5751 5755 5761 5772 5772 5763 5763 5780 5783 5772 5781 5776 5785 5785 5783 5773 5770 5775 5749 5755 5748 5764 5767 5762 5773 5772 5770 5769 5766 5763 5758 5780 5772 5769 5758 5754 5750 5743 5739
5669 5686 5692 5708 5727 5731 5740 5746 5752 5764 5772 5770 5767 5767 5768 5768 5776 5783 5789 5786 5782 5770 5760 5751 5747 5737 5726 5750 5747 5735 5759 5765 5767 5772 5765 5746 5758 5767 5751 5745 5741 5739 5735 5731 5729